| time (UTC) | temp F | wind direction | speed knots | gust knots | rain 1hr in | rain 24hr in | rain mn in | humidity % | barometer mb |
| 20260504160216 | 0 | 131 | 2.6 | 2.6 | 0.00 | 0.00 | 0.00 | 1011.4 | |
| 20260504151144 | 0 | 310 | 11.3 | 13.0 | 0.00 | 0.00 | 0.00 | 1011.8 | |
| 20260504150641 | 0 | 329 | 8.7 | 9.6 | 0.00 | 0.00 | 0.00 | 1011.6 | |
| 20260504150138 | 0 | 265 | 10.4 | 12.2 | 0.00 | 0.00 | 0.00 | 1011.8 | |
| 20260504141107 | 0 | 264 | 7.8 | 9.6 | 0.00 | 0.00 | 0.00 | 1011.8 | |
| 20260504140604 | 0 | 277 | 10.4 | 12.2 | 0.00 | 0.00 | 0.00 | 1011.7 | |
| 20260504130528 | 0 | 261 | 8.7 | 11.3 | 0.00 | 0.00 | 0.00 | 1011.7 | |
| 20260504110415 | 0 | 259 | 3.5 | 4.3 | 0.00 | 0.00 | 0.00 | 1012.2 | |
| 20260504100332 | 0 | 103 | 0.0 | 0.0 | 0.00 | 0.00 | 0.00 | 1011.8 | |
| 20260504081726 | 0 | 37 | 7.8 | 8.7 | 0.00 | 0.00 | 0.00 | 1011.3 | |
| 20260504081222 | 0 | 340 | 13.0 | 14.8 | 0.00 | 0.00 | 0.00 | 1011.1 | |
| 20260504080718 | 0 | 24 | 14.8 | 17.4 | 0.00 | 0.00 | 0.00 | 1011.0 | |
| 20260504080215 | 0 | 19 | 15.6 | 18.2 | 0.00 | 0.00 | 0.00 | 1011.0 | |
| 20260504070142 | 0 | 30 | 17.4 | 20.9 | 0.00 | 0.00 | 0.00 | 1009.3 | |
| 20260504050531 | 0 | 21 | 22.6 | 28.7 | 0.00 | 0.00 | 0.00 | 1006.4 | |
| 20260504045525 | 0 | 31 | 20.9 | 25.2 | 0.00 | 0.00 | 0.00 | 1006.3 | |
| 20260504045020 | 0 | 6 | 17.4 | 22.6 | 0.00 | 0.00 | 0.00 | 1005.9 | |
| 20260504044518 | 0 | 12 | 11.3 | 12.2 | 0.00 | 0.00 | 0.00 | 1005.5 | |
| 20260504044015 | 0 | 28 | 8.7 | 9.6 | 0.00 | 0.00 | 0.00 | 1005.4 | |
| 20260504043512 | 0 | 11 | 7.8 | 7.8 | 0.00 | 0.00 | 0.00 | 1005.3 | |
| 20260504043009 | 0 | 359 | 9.6 | 11.3 | 0.00 | 0.00 | 0.00 | 1004.9 | |
| 20260504042506 | 0 | 29 | 9.6 | 9.6 | 0.00 | 0.00 | 0.00 | 1005.1 | |
| 20260504042003 | 0 | 20 | 9.6 | 11.3 | 0.00 | 0.00 | 0.00 | 1004.7 | |
| 20260504041459 | 0 | 16 | 10.4 | 12.2 | 0.00 | 0.00 | 0.00 | 1004.9 | |
| 20260504040955 | 0 | 13 | 11.3 | 12.2 | 0.00 | 0.00 | 0.00 | 1004.6 | |
| 20260504040453 | 0 | 30 | 11.3 | 13.0 | 0.00 | 0.00 | 0.00 | 1004.6 | |
| 20260504035948 | 0 | 22 | 10.4 | 12.2 | 0.00 | 0.00 | 0.00 | 1004.3 | |
| 20260504035446 | 0 | 20 | 11.3 | 13.0 | 0.00 | 0.00 | 0.00 | 1004.5 | |
| 20260504034942 | 0 | 27 | 10.4 | 12.2 | 0.00 | 0.00 | 0.00 | 1004.4 | |
| 20260504034440 | 0 | 18 | 9.6 | 13.0 | 0.00 | 0.00 | 0.00 | 1004.2 | |
| 20260504033937 | 0 | 24 | 12.2 | 13.9 | 0.00 | 0.00 | 0.00 | 1003.9 | |
| 20260504033435 | 0 | 20 | 13.9 | 15.6 | 0.00 | 0.00 | 0.00 | 1003.7 | |
| 20260504032932 | 0 | 20 | 16.5 | 19.1 | 0.00 | 0.00 | 0.00 | 1003.7 | |
| 20260504032429 | 0 | 21 | 13.0 | 14.8 | 0.00 | 0.00 | 0.00 | 1003.7 | |
| 20260504031925 | 0 | 13 | 13.9 | 17.4 | 0.00 | 0.00 | 0.00 | 1003.7 | |
| 20260504031422 | 0 | 7 | 11.3 | 13.0 | 0.00 | 0.00 | 0.00 | 1003.6 | |
| 20260504030919 | 0 | 30 | 11.3 | 13.0 | 0.00 | 0.00 | 0.00 | 1003.4 | |
| 20260504030416 | 0 | 11 | 13.0 | 14.8 | 0.00 | 0.00 | 0.00 | 1003.3 | |
| 20260504025912 | 0 | 26 | 9.6 | 12.2 | 0.00 | 0.00 | 0.00 | 1003.2 | |
| 20260504025409 | 0 | 18 | 8.7 | 9.6 | 0.00 | 0.00 | 0.00 | 1003.3 | |
| 20260504024906 | 0 | 29 | 10.4 | 11.3 | 0.00 | 0.00 | 0.00 | 1002.9 | |
| 20260504024403 | 0 | 15 | 6.1 | 7.0 | 0.00 | 0.00 | 0.00 | 1003.0 | |
| 20260504023900 | 0 | 8 | 10.4 | 12.2 | 0.00 | 0.00 | 0.00 | 1003.2 | |
| 20260504023356 | 0 | 13 | 6.1 | 7.0 | 0.00 | 0.00 | 0.00 | 1003.2 | |
| 20260504022852 | 0 | 53 | 5.2 | 7.0 | 0.00 | 0.00 | 0.00 | 1002.9 | |
| 20260504022349 | 0 | 3 | 4.3 | 5.2 | 0.00 | 0.00 | 0.00 | 1003.0 | |
| 20260504021845 | 0 | 27 | 7.0 | 8.7 | 0.00 | 0.00 | 0.00 | 1002.9 | |
| 20260504021342 | 0 | 6 | 6.1 | 7.0 | 0.00 | 0.00 | 0.00 | 1002.7 | |
| 20260504020840 | 0 | 349 | 4.3 | 6.1 | 0.00 | 0.00 | 0.00 | 1002.9 | |
| 20260504020336 | 0 | 25 | 2.6 | 5.2 | 0.00 | 0.00 | 0.00 | 1003.2 | |
| 20260504015832 | 0 | 354 | 5.2 | 8.7 | 0.00 | 0.00 | 0.00 | 1003.0 | |
| 20260504015328 | 0 | 333 | 4.3 | 5.2 | 0.00 | 0.00 | 0.00 | 1002.7 | |
| 20260504014825 | 0 | 25 | 7.8 | 9.6 | 0.00 | 0.00 | 0.00 | 1003.1 | |
| 20260504014321 | 0 | 18 | 7.8 | 8.7 | 0.00 | 0.00 | 0.00 | 1003.1 | |
| 20260504013819 | 0 | 25 | 5.2 | 6.1 | 0.00 | 0.00 | 0.00 | 1003.1 | |
| 20260504013316 | 0 | 3 | 6.1 | 7.8 | 0.00 | 0.00 | 0.00 | 1003.0 | |
| 20260504012813 | 0 | 346 | 4.3 | 6.1 | 0.00 | 0.00 | 0.00 | 1002.9 | |
| 20260504012311 | 0 | 334 | 4.3 | 7.8 | 0.00 | 0.00 | 0.00 | 1003.1 | |
| 20260504011808 | 0 | 24 | 8.7 | 11.3 | 0.00 | 0.00 | 0.00 | 1003.0 | |
| 20260504011304 | 0 | 23 | 2.6 | 4.3 | 0.00 | 0.00 | 0.00 | 1002.8 | |
| 20260504010800 | 0 | 13 | 3.5 | 5.2 | 0.00 | 0.00 | 0.00 | 1003.1 | |
| 20260504010256 | 0 | 10 | 4.3 | 9.6 | 0.00 | 0.00 | 0.00 | 1003.0 | |
| 20260504005753 | 0 | 34 | 8.7 | 11.3 | 0.00 | 0.00 | 0.00 | 1003.1 | |
| 20260504005250 | 0 | 18 | 7.0 | 8.7 | 0.00 | 0.00 | 0.00 | 1003.2 | |
| 20260504004747 | 0 | 334 | 6.1 | 12.2 | 0.00 | 0.00 | 0.00 | 1003.1 | |
| 20260504004245 | 0 | 54 | 7.8 | 9.6 | 0.00 | 0.00 | 0.00 | 1003.0 | |
| 20260504003741 | 0 | 268 | 5.2 | 9.6 | 0.00 | 0.00 | 0.00 | 1003.1 | |
| 20260504003238 | 0 | 56 | 2.6 | 5.2 | 0.00 | 0.00 | 0.00 | 1003.3 | |
| 20260504002734 | 0 | 14 | 2.6 | 4.3 | 0.00 | 0.00 | 0.00 | 1003.4 | |
| 20260504002231 | 0 | 4 | 7.0 | 9.6 | 0.00 | 0.00 | 0.00 | 1003.1 | |
| 20260504001729 | 0 | 334 | 4.3 | 8.7 | 0.00 | 0.00 | 0.00 | 1003.1 | |
| 20260504001226 | 0 | 133 | 0.0 | 0.9 | 0.00 | 0.00 | 0.00 | 1003.4 | |
| 20260504000723 | 0 | 358 | 2.6 | 5.2 | 0.00 | 0.00 | 0.00 | 1003.4 | |
| 20260504000219 | 0 | 354 | 6.1 | 7.8 | 0.00 | 0.00 | 0.00 | 1003.5 | |
| 20260503235718 | 0 | 352 | 2.6 | 5.2 | 0.00 | 0.00 | 0.00 | 1003.5 | |
| 20260503235215 | 0 | 15 | 7.0 | 9.6 | 0.00 | 0.00 | 0.00 | 1003.5 | |
| 20260503234713 | 0 | 75 | 1.7 | 1.7 | 0.00 | 0.00 | 0.00 | 1003.6 | |
| 20260503234210 | 0 | 237 | 5.2 | 6.1 | 0.00 | 0.00 | 0.00 | 1003.5 | |
| 20260503233707 | 0 | 299 | 7.8 | 11.3 | 0.00 | 0.00 | 0.00 | 1003.7 | |
| 20260503233203 | 0 | 213 | 4.3 | 7.0 | 0.00 | 0.00 | 0.00 | 1003.5 | |
| 20260503232700 | 0 | 350 | 4.3 | 6.1 | 0.00 | 0.00 | 0.00 | 1003.7 | |
| 20260503232157 | 0 | 346 | 4.3 | 7.0 | 0.00 | 0.00 | 0.00 | 1003.4 | |
| 20260503231655 | 0 | 313 | 3.5 | 4.3 | 0.00 | 0.00 | 0.00 | 1003.6 | |
| 20260503231151 | 0 | 358 | 1.7 | 4.3 | 0.00 | 0.00 | 0.00 | 1003.6 | |
| 20260503230648 | 0 | 268 | 2.6 | 2.6 | 0.00 | 0.00 | 0.00 | 1003.9 | |
| 20260503230145 | 0 | 334 | 5.2 | 7.8 | 0.00 | 0.00 | 0.00 | 1003.7 | |
| 20260503225642 | 0 | 79 | 6.1 | 8.7 | 0.00 | 0.00 | 0.00 | 1003.7 | |
| 20260503225142 | 0 | 336 | 9.6 | 12.2 | 0.00 | 0.00 | 0.00 | 1003.9 | |
| 20260503224640 | 0 | 63 | 6.1 | 7.8 | 0.00 | 0.00 | 0.00 | 1003.9 | |
| 20260503224138 | 0 | 214 | 5.2 | 8.7 | 0.00 | 0.00 | 0.00 | 1003.9 | |
| 20260503223636 | 0 | 290 | 8.7 | 11.3 | 0.00 | 0.00 | 0.00 | 1004.1 | |
| 20260503223132 | 0 | 119 | 2.6 | 5.2 | 0.00 | 0.00 | 0.00 | 1004.0 | |
| 20260503222629 | 0 | 248 | 10.4 | 11.3 | 0.00 | 0.00 | 0.00 | 1004.0 | |
| 20260503222127 | 0 | 61 | 2.6 | 5.2 | 0.00 | 0.00 | 0.00 | 1004.3 | |
| 20260503221625 | 0 | 319 | 7.8 | 12.2 | 0.00 | 0.00 | 0.00 | 1004.0 | |
| 20260503221122 | 0 | 22 | 6.1 | 7.8 | 0.00 | 0.00 | 0.00 | 1004.3 | |
| 20260503220619 | 0 | 309 | 9.6 | 13.9 | 0.00 | 0.00 | 0.00 | 1004.4 | |
| 20260503220115 | 0 | 21 | 6.1 | 7.8 | 0.00 | 0.00 | 0.00 | 1004.3 | |
| 20260503215612 | 0 | 223 | 12.2 | 13.9 | 0.00 | 0.00 | 0.00 | 1004.5 | |
| 20260503215109 | 0 | 320 | 13.0 | 13.9 | 0.00 | 0.00 | 0.00 | 1004.6 | |
| 20260503214608 | 0 | 315 | 11.3 | 14.8 | 0.00 | 0.00 | 0.00 | 1004.7 | |
| 20260503214103 | 0 | 303 | 7.8 | 7.8 | 0.00 | 0.00 | 0.00 | 1004.6 | |
| 20260503213603 | 0 | 300 | 8.7 | 9.6 | 0.00 | 0.00 | 0.00 | 1004.7 | |
| 20260503213058 | 0 | 282 | 5.2 | 7.8 | 0.00 | 0.00 | 0.00 | 1004.8 | |
| 20260503212556 | 0 | 2 | 6.1 | 7.0 | 0.00 | 0.00 | 0.00 | 1005.2 | |
| 20260503212053 | 0 | 243 | 7.8 | 12.2 | 0.00 | 0.00 | 0.00 | 1005.4 | |
| 20260503211550 | 0 | 311 | 14.8 | 17.4 | 0.00 | 0.00 | 0.00 | 1005.2 | |
| 20260503211045 | 0 | 304 | 8.7 | 11.3 | 0.00 | 0.00 | 0.00 | 1005.3 | |
| 20260503210543 | 0 | 262 | 8.7 | 9.6 | 0.00 | 0.00 | 0.00 | 1005.3 | |
| 20260503210038 | 0 | 342 | 5.2 | 7.0 | 0.00 | 0.00 | 0.00 | 1005.6 | |
| 20260503205535 | 0 | 284 | 11.3 | 13.9 | 0.00 | 0.00 | 0.00 | 1005.3 | |
| 20260503205032 | 0 | 298 | 7.8 | 7.8 | 0.00 | 0.00 | 0.00 | 1005.5 | |
| 20260503204529 | 0 | 18 | 4.3 | 5.2 | 0.00 | 0.00 | 0.00 | 1005.5 | |
| 20260503204026 | 0 | 307 | 8.7 | 12.2 | 0.00 | 0.00 | 0.00 | 1005.7 | |
| 20260503203523 | 0 | 44 | 5.2 | 7.0 | 0.00 | 0.00 | 0.00 | 1005.7 | |
| 20260503203020 | 0 | 357 | 3.5 | 7.8 | 0.00 | 0.00 | 0.00 | 1005.8 | |
| 20260503202518 | 0 | 49 | 5.2 | 7.0 | 0.00 | 0.00 | 0.00 | 1006.0 | |
| 20260503202016 | 0 | 321 | 11.3 | 13.0 | 0.00 | 0.00 | 0.00 | 1006.3 | |
| 20260503201514 | 0 | 39 | 4.3 | 5.2 | 0.00 | 0.00 | 0.00 | 1006.1 | |
| 20260503201010 | 0 | 312 | 14.8 | 19.1 | 0.00 | 0.00 | 0.00 | 1006.1 | |
| 20260503200507 | 0 | 108 | 1.7 | 1.7 | 0.00 | 0.00 | 0.00 | 1006.0 | |
| 20260503200004 | 0 | 318 | 9.6 | 12.2 | 0.00 | 0.00 | 0.00 | 1005.9 | |
| 20260503195501 | 0 | 253 | 13.9 | 17.4 | 0.00 | 0.00 | 0.00 | 1006.0 | |
| 20260503194957 | 0 | 259 | 8.7 | 9.6 | 0.00 | 0.00 | 0.00 | 1006.3 | |
| 20260503194455 | 0 | 284 | 17.4 | 20.9 | 0.00 | 0.00 | 0.00 | 1006.1 | |
| 20260503193949 | 0 | 271 | 7.8 | 8.7 | 0.00 | 0.00 | 0.00 | 1006.5 | |
| 20260503193445 | 0 | 310 | 12.2 | 14.8 | 0.00 | 0.00 | 0.00 | 1006.3 | |
| 20260503192941 | 0 | 245 | 6.1 | 7.0 | 0.00 | 0.00 | 0.00 | 1006.5 | |
| 20260503192437 | 0 | 255 | 9.6 | 11.3 | 0.00 | 0.00 | 0.00 | 1006.6 | |
| 20260503191933 | 0 | 282 | 8.7 | 9.6 | 0.00 | 0.00 | 0.00 | 1006.5 | |
| 20260503191431 | 0 | 326 | 7.0 | 7.8 | 0.00 | 0.00 | 0.00 | 1006.7 | |
| 20260503190927 | 0 | 293 | 6.1 | 11.3 | 0.00 | 0.00 | 0.00 | 1006.9 | |
| 20260503190425 | 0 | 289 | 7.8 | 9.6 | 0.00 | 0.00 | 0.00 | 1006.8 | |
| 20260503185921 | 0 | 287 | 8.7 | 9.6 | 0.00 | 0.00 | 0.00 | 1006.8 | |
| 20260503185418 | 0 | 312 | 11.3 | 14.8 | 0.00 | 0.00 | 0.00 | 1006.9 | |
| 20260503184917 | 0 | 285 | 14.8 | 19.1 | 0.00 | 0.00 | 0.00 | 1006.7 | |
| 20260503184414 | 0 | 344 | 3.5 | 6.1 | 0.00 | 0.00 | 0.00 | 1006.9 | |
| 20260503183910 | 0 | 300 | 11.3 | 14.8 | 0.00 | 0.00 | 0.00 | 1006.9 | |
| 20260503183407 | 0 | 315 | 3.5 | 5.2 | 0.00 | 0.00 | 0.00 | 1007.0 | |
| 20260503182904 | 0 | 314 | 11.3 | 12.2 | 0.00 | 0.00 | 0.00 | 1007.3 | |
| 20260503182403 | 0 | 238 | 9.6 | 13.0 | 0.00 | 0.00 | 0.00 | 1007.5 | |
| 20260503181900 | 0 | 344 | 9.6 | 13.0 | 0.00 | 0.00 | 0.00 | 1007.6 | |
| 20260503181356 | 0 | 321 | 13.9 | 15.6 | 0.00 | 0.00 | 0.00 | 1007.5 | |
| 20260503180853 | 0 | 271 | 13.0 | 14.8 | 0.00 | 0.00 | 0.00 | 1007.7 | |
| 20260503180351 | 0 | 290 | 7.0 | 9.6 | 0.00 | 0.00 | 0.00 | 1007.8 | |
| 20260503175847 | 0 | 316 | 13.0 | 15.6 | 0.00 | 0.00 | 0.00 | 1007.6 | |
| 20260503175345 | 0 | 304 | 5.2 | 6.1 | 0.00 | 0.00 | 0.00 | 1007.6 | |
| 20260503174841 | 0 | 289 | 7.8 | 7.8 | 0.00 | 0.00 | 0.00 | 1008.0 | |
| 20260503174339 | 0 | 356 | 2.6 | 4.3 | 0.00 | 0.00 | 0.00 | 1007.9 | |
| 20260503173834 | 0 | 253 | 2.6 | 4.3 | 0.00 | 0.00 | 0.00 | 1007.9 | |
| 20260503173331 | 0 | 279 | 5.2 | 6.1 | 0.00 | 0.00 | 0.00 | 1007.9 | |
| 20260503172827 | 0 | 262 | 6.1 | 6.1 | 0.00 | 0.00 | 0.00 | 1008.1 | |
| 20260503172325 | 0 | 314 | 4.3 | 6.1 | 0.00 | 0.00 | 0.00 | 1008.2 | |
| 20260503171821 | 0 | 295 | 7.8 | 8.7 | 0.00 | 0.00 | 0.00 | 1008.3 | |
| 20260503171318 | 0 | 305 | 5.2 | 6.1 | 0.00 | 0.00 | 0.00 | 1008.0 | |
| 20260503170815 | 0 | 280 | 6.1 | 8.7 | 0.00 | 0.00 | 0.00 | 1008.2 | |
| 20260503170312 | 0 | 304 | 11.3 | 12.2 | 0.00 | 0.00 | 0.00 | 1008.3 |